Tampa, FL

12:30 AM EST on December 14, 2017 (GMT -0500)
Tampa International

Weather History for KTPA - October, 2013

Change the Weather History Date:

Wednesday, October 9, 2013

  Actual Average Record
Temperature  
Mean Temperature 76 °F 78 °F  
Max Temperature 82 °F 86 °F 95 °F (1941)
Min Temperature 69 °F 70 °F 53 °F (2000)
Degree Days  
Heating Degree Days 0 0  
Month to date heating degree days 0 0  
Since 1 July heating degree days 0 0  
Cooling Degree Days 11 13  
Month to date cooling degree days 148 124  
Year to date cooling degree days 3300 3140  
Growing Degree Days 26 (Base 50)    
Moisture  
Dew Point 66 °F    
Average Humidity 71    
Maximum Humidity 84    
Minimum Humidity 58    
Precipitation  
Precipitation 0.00 in 0.09 in 1.58 in (1993)
Month to date precipitation 0.70 0.92  
Year to date precipitation 50.59 40.94  
Sea Level Pressure  
Sea Level Pressure 30.02 in    
Wind  
Wind Speed 7 mph (NNE)    
Max Wind Speed 14 mph    
Max Gust Speed 20 mph    
Visibility 10 miles    
Events      
T = Trace of Precipitation, MM = Missing Value Source: NWS Daily Summary

Daily Weather History Graph

Daily Weather History Graph

Search for Another Location

Airport or City:

Trip Planner

Search our weather history database for the weather conditions in past years. The results will help you decide how hot, cold, wet, or windy it might be!

Date:

Astronomy

Oct. 09, 2013 Rise Set
Actual Time 7:27 AM EDT 7:06 PM EDT
Civil Twilight 7:03 AM EDT 7:30 PM EDT
Nautical Twilight 6:36 AM EDT 7:57 PM EDT
Astronomical Twilight 6:09 AM EDT 8:24 PM EDT
Moon 12:01 PM EDT (10/9) 10:59 PM EDT (10/9)
Length of Visible Light 12h 26m
Length of Day
11h 39m
Waxing Crescent, 25% of the Moon is Illuminated
Oct 9
Waxing Crescent
Oct 11
First Quarter
Oct 18
Full
Oct 26
Last Quarter
Nov 3
New

Hourly Weather History & Observations

Time (EDT) Temp. Heat Index Dew Point Humidity Pressure Visibility Wind Dir Wind Speed Gust Speed Precip Events Conditions
12:53 AM 75.9 °F - 68.0 °F 76% 29.97 in 10.0 mi NE 5.8 mph - N/A   Overcast
1:53 AM 75.0 °F - 68.0 °F 79% 29.98 in 10.0 mi NE 8.1 mph - N/A   Overcast
2:53 AM 73.9 °F - 68.0 °F 82% 29.98 in 10.0 mi NNE 8.1 mph - N/A   Overcast
3:53 AM 73.9 °F - 68.0 °F 82% 29.97 in 10.0 mi NNE 5.8 mph - N/A   Overcast
4:53 AM 73.0 °F - 68.0 °F 84% 29.97 in 10.0 mi North 6.9 mph - N/A   Overcast
5:53 AM 73.0 °F - 66.9 °F 81% 29.98 in 10.0 mi NNE 6.9 mph - N/A   Overcast
6:53 AM 73.0 °F - 66.9 °F 81% 30.00 in 10.0 mi North 8.1 mph - N/A   Overcast
7:09 AM 73.4 °F - 66.2 °F 78% 30.00 in 10.0 mi NNE 9.2 mph - N/A   Overcast
7:53 AM 73.0 °F - 66.9 °F 81% 30.01 in 10.0 mi NE 6.9 mph - N/A   Overcast
8:53 AM 72.0 °F - 66.9 °F 84% 30.03 in 10.0 mi North 6.9 mph - N/A   Overcast
9:36 AM 73.4 °F - 66.2 °F 78% 30.05 in 10.0 mi North 5.8 mph - N/A   Overcast
9:53 AM 73.0 °F - 66.0 °F 79% 30.05 in 10.0 mi NNE 6.9 mph - N/A   Overcast
10:53 AM 73.0 °F - 66.9 °F 81% 30.06 in 10.0 mi North 5.8 mph - N/A   Overcast
11:53 AM 73.9 °F - 66.0 °F 76% 30.06 in 10.0 mi NNE 8.1 mph - N/A   Overcast
12:26 PM 73.4 °F - 66.2 °F 78% 30.06 in 10.0 mi NNE 5.8 mph - N/A   Overcast
12:53 PM 75.0 °F - 66.9 °F 76% 30.06 in 10.0 mi NNE 6.9 mph - N/A   Overcast
1:53 PM 78.1 °F - 66.0 °F 66% 30.04 in 10.0 mi Calm Calm - N/A   Mostly Cloudy
2:53 PM 78.1 °F - 66.0 °F 66% 30.02 in 10.0 mi Variable 3.5 mph - N/A   Overcast
3:53 PM 79.0 °F - 66.0 °F 64% 30.00 in 10.0 mi NNE 4.6 mph - N/A   Mostly Cloudy
4:00 PM 80.6 °F 82.7 °F 66.2 °F 61% 30.00 in 10.0 mi Variable 3.5 mph - N/A   Mostly Cloudy
4:53 PM 81.0 °F 82.7 °F 64.9 °F 58% 30.00 in 10.0 mi NNE 8.1 mph - N/A   Scattered Clouds
5:53 PM 81.0 °F 82.5 °F 64.0 °F 56% 30.00 in 10.0 mi NNE 8.1 mph - N/A   Scattered Clouds
6:53 PM 79.0 °F - 64.9 °F 62% 30.01 in 10.0 mi Variable 4.6 mph - N/A   Mostly Cloudy
7:53 PM 77.0 °F - 64.9 °F 66% 30.01 in 10.0 mi NE 9.2 mph - N/A   Partly Cloudy
8:53 PM 73.9 °F - 66.0 °F 76% 30.03 in 10.0 mi NNE 9.2 mph - N/A   Partly Cloudy
9:53 PM 71.1 °F - 64.9 °F 81% 30.05 in 10.0 mi NE 6.9 mph - N/A   Partly Cloudy
10:53 PM 70.0 °F - 64.0 °F 81% 30.06 in 10.0 mi NNE 5.8 mph - N/A   Clear
11:53 PM 70.0 °F - 64.0 °F 81% 30.06 in 10.0 mi NE 6.9 mph - N/A   Clear